Location: Sternwarte_Laufen
(47.9344°N, 12.9346°E)
Time: 14:13:32
(UTC+02:00)

ISS - Pass Details

Date: 23 May 2018
Orbit: 402 x 407 km, 51.6° (Epoch: 25 May)

Event Time Altitude Azimuth Distance (km) Brightness Sun altitude
Rises 22:06:55 0° 240° (WSW) 2,313 0.2 -10.6°
Reaches altitude 10° 22:08:59 10° 239° (WSW) 1,455 -0.9 -10.9°
Maximum altitude 22:12:14 75° 154° (SSE) 421 -3.9 -11.2°
Drops below altitude 10° 22:15:30 10° 69° (ENE) 1,459 -1.2 -11.6°
Sets 22:17:35 0° 67° (ENE) 2,321 -0.2 -11.8°
